�N����,����,�~����,�C��,���x,�C��,����,���ϕ���,�ő�u�ԕ���,�ő厞����,���˗�,�I�_���x,�n�����x,�ő啗���N��,DTYPE
"20/10/17","00:10",0.0,15.5,82.0,1015.2,325.1,1.7,2.9,341.1,0.00,12.5,18.5,"00:08:08",1
"20/10/17","00:20",0.0,15.4,82.1,1015.4,323.1,2.0,3.9,339.6,0.00,12.4,18.5,"00:10:56",1
"20/10/17","00:30",0.0,15.5,81.8,1014.9,327.5,2.1,4.0,333.6,0.00,12.4,18.6,"00:28:24",1
"20/10/17","00:40",0.0,15.6,81.5,1015.4,323.2,2.0,3.9,338.3,0.00,12.5,18.7,"00:31:36",1
"20/10/17","00:50",0.0,15.7,81.0,1015.6,325.5,2.7,4.7,341.5,0.00,12.5,18.5,"00:48:32",1
"20/10/17","01:00",0.0,15.7,80.2,1015.9,318.1,2.0,3.9,334.4,0.00,12.3,18.5,"00:55:20",1
"20/10/17","01:10",0.0,15.7,79.4,1016.6,320.7,2.5,4.4,336.9,0.00,12.2,18.5,"01:06:32",1
"20/10/17","01:20",0.0,15.3,77.7,1016.6,325.6,2.1,5.1,335.0,0.00,11.5,18.3,"01:14:24",1
"20/10/17","01:30",0.2,15.0,78.0,1015.9,332.0,2.5,4.1,320.8,0.00,11.2,18.4,"01:27:16",1
"20/10/17","01:40",0.2,14.2,80.8,1016.1,318.7,2.2,4.5,316.5,0.00,11.0,18.3,"01:35:16",1
"20/10/17","01:50",0.2,13.8,83.1,1015.4,321.2,2.5,3.9,328.7,0.00,11.0,18.2,"01:44:22",1
"20/10/17","02:00",0.0,13.5,84.7,1016.1,299.5,1.7,3.1,326.2,0.00,11.0,18.3,"01:58:30",1
"20/10/17","02:10",0.2,13.3,85.9,1016.6,311.8,1.8,3.3,324.2,0.00,11.0,18.2,"02:01:26",1
"20/10/17","02:20",0.0,13.1,86.7,1015.9,318.0,1.3,2.9,356.5,0.00,11.0,18.0,"02:12:42",1
"20/10/17","02:30",0.2,13.1,87.5,1015.9,299.2,1.5,3.2,340.2,0.00,11.1,18.1,"02:26:40",1
"20/10/17","02:40",0.2,13.0,88.2,1016.1,306.3,1.5,3.6,335.6,0.00,11.1,18.0,"02:39:52",1
"20/10/17","02:50",0.0,13.0,88.8,1015.6,329.7,2.2,4.0,339.0,0.00,11.2,18.2,"02:46:16",1
"20/10/17","03:00",0.0,12.9,89.3,1015.4,344.1,1.6,3.1,334.9,0.00,11.2,18.0,"02:58:24",1
"20/10/17","03:10",0.2,12.9,89.8,1015.4,326.0,2.2,3.7,341.6,0.00,11.3,18.1,"03:03:20",1
"20/10/17","03:20",0.0,12.9,90.2,1015.6,310.1,1.3,2.6,328.3,0.00,11.4,18.1,"03:14:56",1
"20/10/17","03:30",0.0,12.8,90.7,1015.6,300.6,1.5,3.2,329.7,0.00,11.4,17.9,"03:21:04",1
"20/10/17","03:40",0.2,12.7,91.0,1015.6,319.3,2.1,3.1,328.2,0.00,11.3,17.7,"03:33:28",1
"20/10/17","03:50",0.4,12.6,91.3,1015.4,291.6,1.1,2.5,321.5,0.00,11.3,17.9,"03:40:32",1
"20/10/17","04:00",0.0,12.6,91.6,1015.6,309.6,1.3,2.4,342.5,0.00,11.3,17.8,"03:59:36",1
"20/10/17","04:10",0.2,12.6,91.9,1015.6,317.3,1.7,3.1,336.8,0.00,11.4,17.8,"04:03:44",1
"20/10/17","04:20",0.2,12.5,92.2,1015.6,301.7,1.1,2.2,340.1,0.00,11.3,17.5,"04:17:52",1
"20/10/17","04:30",0.0,12.5,92.4,1016.1,310.5,1.1,2.0,328.4,0.00,11.3,17.7,"04:28:24",1
"20/10/17","04:40",0.2,12.5,92.5,1015.6,299.3,1.1,2.1,319.7,0.00,11.4,17.5,"04:38:00",1
"20/10/17","04:50",0.2,12.5,92.7,1016.4,289.0,1.0,2.0,337.5,0.00,11.4,17.7,"04:45:20",1
"20/10/17","05:00",0.2,12.5,92.9,1016.4,291.1,0.8,1.7,324.2,0.00,11.4,17.7,"04:55:04",1
"20/10/17","05:10",0.4,12.5,93.0,1016.8,313.6,0.8,2.1,338.4,0.00,11.4,17.4,"05:05:12",1
"20/10/17","05:20",0.2,12.5,93.2,1016.6,319.4,1.1,2.0,323.5,0.00,11.5,17.5,"05:12:56",1
"20/10/17","05:30",0.6,12.4,93.4,1016.6,324.9,1.5,2.8,325.5,0.00,11.4,17.4,"05:25:20",1
"20/10/17","05:40",0.6,12.4,93.5,1016.4,314.4,1.0,2.2,335.4,0.00,11.4,17.5,"05:33:12",1
"20/10/17","05:50",0.2,12.4,93.6,1016.8,312.8,1.1,1.9,321.2,0.00,11.4,17.5,"05:40:16",1
"20/10/17","06:00",0.4,12.3,93.8,1016.4,307.8,1.0,1.4,297.9,0.00,11.4,17.3,"05:56:56",1
"20/10/17","06:10",0.2,12.3,93.9,1016.4,291.0,0.8,1.6,325.4,0.00,11.4,17.5,"06:07:20",1
"20/10/17","06:20",0.4,12.3,93.9,1016.4,287.4,0.8,1.0,280.8,0.00,11.4,17.4,"06:14:40",1
"20/10/17","06:30",0.4,12.3,94.1,1016.4,273.8,0.7,1.1,263.6,0.00,11.4,17.4,"06:27:48",1
"20/10/17","06:40",0.4,12.2,94.2,1016.8,271.4,0.7,1.3,257.4,0.00,11.3,17.3,"06:31:06",1
"20/10/17","06:50",0.4,12.3,94.3,1016.6,297.9,0.7,1.0,304.1,0.00,11.5,17.3,"06:43:12",1
"20/10/17","07:00",0.4,12.3,94.3,1016.8,278.8,0.5,0.5,278.9,0.00,11.5,17.4,"06:56:16",1
"20/10/17","07:10",0.2,12.4,94.4,1016.8,291.9,0.8,0.9,295.1,0.00,11.6,17.3,"07:08:12",1
"20/10/17","07:20",0.2,12.3,94.5,1016.8,285.9,0.6,0.6,289.9,0.00,11.5,17.1,"07:11:04",1
"20/10/17","07:30",0.2,12.4,94.6,1017.1,290.4,0.9,0.9,299.4,0.00,11.6,17.2,"07:20:58",1
"20/10/17","07:40",0.2,12.3,94.7,1017.1,269.2,0.7,1.0,281.0,0.00,11.5,17.2,"07:37:44",1
"20/10/17","07:50",0.4,12.3,94.8,1017.1,278.7,0.8,1.4,304.8,0.00,11.5,17.2,"07:45:24",1
"20/10/17","08:00",0.2,12.4,94.9,1017.3,292.2,0.8,1.1,293.5,0.00,11.6,17.5,"07:54:58",1
"20/10/17","08:10",0.2,12.5,94.9,1017.1,283.4,0.7,1.4,311.1,0.01,11.7,17.3,"08:07:46",1
"20/10/17","08:20",0.2,12.5,94.9,1017.1,296.3,0.8,1.3,320.0,0.01,11.7,17.0,"08:15:26",1
"20/10/17","08:30",0.2,12.6,95.1,1017.5,315.6,0.7,1.2,312.4,0.01,11.9,17.3,"08:25:02",1
"20/10/17","08:40",0.4,12.6,95.1,1017.3,286.1,0.5,1.1,307.8,0.01,11.9,17.2,"08:30:18",1
"20/10/17","08:50",0.2,12.7,95.1,1017.1,274.4,0.6,0.9,271.0,0.02,12.0,17.3,"08:47:14",1
"20/10/17","09:00",0.2,12.6,95.2,1017.3,280.6,0.6,1.1,311.1,0.02,11.9,17.4,"08:53:30",1
"20/10/17","09:10",0.4,12.8,95.2,1017.5,285.8,0.6,1.2,327.4,0.02,12.1,17.4,"09:06:34",1
"20/10/17","09:20",0.2,12.9,95.3,1017.3,286.0,0.6,1.1,313.1,0.04,12.2,17.5,"09:15:08",1
"20/10/17","09:30",0.2,12.8,95.3,1017.5,277.1,0.6,1.1,307.1,0.04,12.1,17.5,"09:29:40",1
"20/10/17","09:40",0.4,12.9,95.4,1017.1,297.5,0.7,1.3,320.3,0.04,12.2,17.4,"09:38:44",1
"20/10/17","09:50",0.2,12.9,95.4,1017.3,287.0,0.8,1.6,335.9,0.03,12.2,17.4,"09:40:10",1
"20/10/17","10:00",0.2,12.9,95.4,1017.5,283.0,0.8,1.3,312.8,0.04,12.2,17.4,"09:51:40",1
"20/10/17","10:10",0.4,12.7,95.4,1017.1,257.5,0.6,1.3,237.9,0.03,12.0,17.4,"10:00:34",1
"20/10/17","10:20",0.6,12.9,95.4,1017.1,294.7,0.7,1.0,316.1,0.04,12.2,17.6,"10:12:12",1
"20/10/17","10:30",0.2,12.9,95.4,1016.6,281.5,0.5,0.9,299.9,0.04,12.2,17.2,"10:25:32",1
"20/10/17","10:40",0.4,12.8,95.5,1016.8,254.1,0.6,1.2,247.2,0.04,12.1,17.3,"10:34:26",1
"20/10/17","10:50",0.4,13.0,95.5,1016.8,237.1,0.2,0.6,111.2,0.05,12.3,17.4,"10:46:40",1
"20/10/17","11:00",0.0,12.9,95.6,1016.8,280.1,0.7,1.0,303.8,0.04,12.3,17.5,"10:59:42",1
"20/10/17","11:10",0.2,13.0,95.6,1016.6,302.8,1.0,1.3,307.7,0.04,12.4,17.5,"11:07:54",1
"20/10/17","11:20",0.2,13.2,95.6,1016.4,318.3,1.0,1.3,331.2,0.05,12.6,17.3,"11:19:46",1
"20/10/17","11:30",0.2,13.2,95.6,1016.4,301.7,1.2,1.8,316.4,0.05,12.6,17.5,"11:21:42",1
"20/10/17","11:40",0.2,13.2,95.7,1016.4,303.2,1.2,1.7,310.9,0.06,12.6,17.7,"11:33:10",1
"20/10/17","11:50",0.4,13.2,95.7,1016.4,266.2,0.8,1.2,237.3,0.06,12.6,17.6,"11:44:10",1
"20/10/17","12:00",0.2,13.3,95.7,1016.4,315.6,1.0,1.6,315.2,0.06,12.7,17.4,"11:58:18",1
"20/10/17","12:10",0.2,13.4,95.7,1016.4,295.9,0.8,1.3,321.2,0.05,12.8,17.7,"12:02:38",1
"20/10/17","12:20",0.2,13.2,95.7,1015.9,331.4,1.1,1.9,319.4,0.04,12.6,17.6,"12:14:04",1
"20/10/17","12:30",0.4,13.1,95.7,1015.4,332.4,1.2,2.1,319.8,0.04,12.5,17.5,"12:27:54",1
"20/10/17","12:40",0.2,13.2,95.8,1016.1,332.1,1.1,1.7,312.0,0.04,12.6,17.7,"12:36:48",1
"20/10/17","12:50",0.2,13.1,95.9,1016.1,314.1,1.3,2.2,328.5,0.03,12.5,17.4,"12:47:12",1
"20/10/17","13:00",0.2,13.3,95.9,1016.1,330.0,0.8,1.7,338.4,0.03,12.7,17.6,"12:56:36",1
"20/10/17","13:10",0.6,13.2,95.8,1016.1,332.2,1.2,2.0,332.2,0.04,12.6,17.4,"13:02:30",1
"20/10/17","13:20",0.4,13.3,95.9,1015.9,335.8,1.2,2.4,336.5,0.03,12.7,17.7,"13:12:48",1
"20/10/17","13:30",0.2,13.2,95.9,1015.9,335.8,1.0,1.8,334.8,0.03,12.6,17.4,"13:20:08",1
"20/10/17","13:40",0.4,13.1,96.0,1015.6,328.6,0.8,1.4,324.4,0.02,12.5,17.3,"13:39:46",1
"20/10/17","13:50",0.4,13.2,96.0,1015.6,318.5,0.7,1.2,329.9,0.04,12.6,17.6,"13:40:16",1
"20/10/17","14:00",0.4,13.3,96.0,1015.2,308.4,0.7,1.4,325.4,0.04,12.7,17.4,"13:55:28",1
"20/10/17","14:10",0.2,13.4,95.9,1015.2,272.2,0.6,1.3,245.4,0.04,12.8,17.6,"14:07:28",1
"20/10/17","14:20",0.0,13.4,96.0,1015.6,316.7,0.5,1.0,268.2,0.04,12.8,17.4,"14:12:18",1
"20/10/17","14:30",0.2,13.5,95.9,1015.4,299.3,0.7,1.2,320.0,0.03,12.9,17.5,"14:27:22",1
"20/10/17","14:40",0.0,13.5,95.9,1015.2,315.2,1.0,1.4,327.6,0.02,12.9,17.7,"14:33:40",1
"20/10/17","14:50",0.4,13.3,96.0,1015.2,322.2,1.3,2.0,336.5,0.01,12.7,17.4,"14:49:54",1
"20/10/17","15:00",0.4,13.3,96.0,1015.4,298.5,1.1,1.8,329.5,0.00,12.7,17.4,"14:50:08",1
"20/10/17","15:10",0.4,13.4,96.0,1015.6,309.8,0.8,1.3,312.4,0.00,12.8,17.4,"15:09:24",1
"20/10/17","15:20",0.6,13.4,95.9,1016.1,290.0,0.8,1.6,321.6,0.00,12.8,17.5,"15:10:50",1
"20/10/17","15:30",0.8,13.3,96.0,1016.4,286.1,0.3,1.0,303.7,0.00,12.7,17.6,"15:22:34",1
"20/10/17","15:40",0.6,13.2,96.0,1015.9,262.0,0.1,0.8,108.1,0.00,12.6,17.4,"15:37:18",1
"20/10/17","15:50",0.8,13.3,96.0,1015.9,191.5,0.2,0.9,220.7,0.00,12.7,17.6,"15:48:20",1
"20/10/17","16:00",1.2,13.2,96.1,1015.9,320.0,0.3,0.9,100.6,0.00,12.6,17.5,"15:53:54",1
"20/10/17","16:10",0.4,13.2,96.1,1016.1,325.8,0.7,1.6,305.5,0.00,12.6,17.2,"16:04:46",1
"20/10/17","16:20",0.2,13.2,96.2,1016.4,317.1,1.0,1.7,313.2,0.00,12.6,17.3,"16:16:50",1
"20/10/17","16:30",0.2,13.1,96.2,1016.6,309.4,0.8,1.2,329.5,0.00,12.5,17.2,"16:22:44",1
"20/10/17","16:40",0.0,13.1,96.3,1016.4,310.6,1.2,1.8,312.6,0.00,12.6,17.3,"16:36:52",1
"20/10/17","16:50",0.0,13.2,96.3,1016.1,329.0,1.1,1.9,330.3,0.00,12.7,17.1,"16:44:26",1
"20/10/17","17:00",0.0,13.2,96.3,1016.6,327.9,1.2,2.0,313.0,0.00,12.7,17.3,"16:56:02",1
"20/10/17","17:10",0.0,13.1,96.3,1016.6,309.6,0.8,1.7,322.3,0.00,12.6,17.2,"17:05:06",1
"20/10/17","17:20",0.0,13.0,96.4,1016.6,301.1,0.6,1.4,330.2,0.00,12.5,17.2,"17:17:36",1
"20/10/17","17:30",0.0,13.0,96.4,1016.4,323.3,0.6,1.2,350.3,0.00,12.5,17.1,"17:28:06",1
"20/10/17","17:40",0.0,12.9,96.5,1016.4,317.4,0.3,0.9,340.7,0.00,12.4,17.3,"17:32:22",1
"20/10/17","17:50",0.0,12.9,96.5,1016.8,322.7,1.6,2.0,320.2,0.00,12.4,17.3,"17:48:44",1
"20/10/17","18:00",0.0,12.8,96.6,1016.6,315.6,1.3,2.2,338.3,0.00,12.3,17.2,"17:50:20",1
"20/10/17","18:10",0.0,12.7,96.7,1016.8,318.1,0.7,1.4,311.7,0.00,12.2,17.1,"18:09:06",1
"20/10/17","18:20",0.0,12.6,96.7,1017.1,315.1,1.1,1.8,310.1,0.00,12.1,17.2,"18:19:16",1
"20/10/17","18:30",0.0,12.6,96.7,1016.6,298.4,0.5,1.3,301.0,0.00,12.1,17.1,"18:20:08",1
"20/10/17","18:40",0.0,12.6,96.8,1016.8,301.6,0.7,1.6,317.2,0.00,12.1,17.0,"18:34:08",1
"20/10/17","18:50",0.0,12.5,96.8,1016.6,304.5,1.0,1.4,321.0,0.00,12.0,17.1,"18:41:04",1
"20/10/17","19:00",0.0,12.5,96.9,1016.8,287.9,0.8,1.2,295.1,0.00,12.1,17.2,"18:59:50",1
"20/10/17","19:10",0.0,12.4,96.9,1016.8,317.1,0.7,1.1,305.3,0.00,12.0,17.2,"19:01:48",1
"20/10/17","19:20",0.0,12.3,97.0,1016.8,280.3,0.8,0.9,292.4,0.00,11.9,17.2,"19:11:04",1
"20/10/17","19:30",0.0,12.3,97.0,1017.3,286.4,1.0,1.2,279.3,0.00,11.9,16.9,"19:27:40",1
"20/10/17","19:40",0.0,12.4,97.1,1017.1,316.7,1.3,1.6,309.3,0.00,12.0,17.0,"19:34:00",1
"20/10/17","19:50",0.0,12.3,97.1,1016.8,281.0,0.8,0.9,278.9,0.00,11.9,17.1,"19:48:16",1
"20/10/17","20:00",0.0,12.2,97.0,1017.3,269.1,1.1,1.4,243.3,0.00,11.8,17.0,"19:54:22",1
"20/10/17","20:10",0.0,12.0,97.1,1017.1,310.6,1.1,1.8,329.1,0.00,11.6,16.7,"20:04:24",1
"20/10/17","20:20",0.0,11.8,97.2,1017.1,284.1,0.8,1.0,282.9,0.00,11.4,17.0,"20:15:30",1
"20/10/17","20:30",0.0,11.8,97.3,1017.1,271.2,0.7,1.0,304.3,0.00,11.4,16.9,"20:21:34",1
"20/10/17","20:40",0.0,11.6,97.3,1017.1,299.5,0.8,1.2,299.0,0.00,11.2,16.8,"20:34:40",1
"20/10/17","20:50",0.0,11.5,97.4,1016.8,288.0,1.0,2.2,285.6,0.00,11.1,16.9,"20:43:12",1
"20/10/17","21:00",0.0,11.4,97.4,1017.1,288.8,0.8,1.6,309.4,0.00,11.0,16.7,"20:59:50",1
"20/10/17","21:10",0.0,11.5,97.5,1017.1,332.2,1.2,2.8,338.7,0.00,11.2,16.8,"21:05:40",1
"20/10/17","21:20",0.0,11.4,97.6,1017.1,338.0,1.3,2.6,338.6,0.00,11.1,16.7,"21:13:58",1
"20/10/17","21:30",0.0,11.3,97.6,1017.1,321.0,1.5,1.9,325.1,0.00,11.0,16.7,"21:22:00",1
"20/10/17","21:40",0.0,11.2,97.7,1017.1,346.9,1.2,2.1,335.1,0.00,10.9,16.7,"21:37:12",1
"20/10/17","21:50",0.0,11.4,97.8,1017.1,337.9,1.6,2.8,349.3,0.00,11.1,16.5,"21:46:54",1
"20/10/17","22:00",0.0,11.4,97.8,1017.1,325.9,2.0,2.9,325.3,0.00,11.1,16.6,"21:52:18",1
"20/10/17","22:10",0.0,11.2,97.8,1017.5,318.2,1.7,3.1,317.9,0.00,10.9,16.5,"22:08:46",1
"20/10/17","22:20",0.0,11.1,97.9,1017.3,328.8,2.0,3.7,345.6,0.00,10.8,16.5,"22:15:04",1
"20/10/17","22:30",0.0,11.1,97.9,1017.3,335.1,2.0,3.2,332.1,0.00,10.8,16.6,"22:22:44",1
"20/10/17","22:40",0.0,10.9,98.0,1017.1,339.2,2.0,2.9,344.0,0.00,10.6,16.4,"22:38:44",1
"20/10/17","22:50",0.0,11.0,97.5,1017.1,327.3,1.8,3.5,330.4,0.00,10.7,16.3,"22:42:08",1
"20/10/17","23:00",0.0,10.8,97.9,1017.3,305.4,1.1,2.6,339.1,0.00,10.5,16.3,"22:51:28",1
"20/10/17","23:10",0.0,10.7,98.0,1017.1,310.0,1.3,2.5,316.1,0.00,10.4,16.3,"23:06:24",1
"20/10/17","23:20",0.0,10.7,97.5,1017.3,310.8,0.8,1.4,323.4,0.00,10.4,16.3,"23:14:16",1
"20/10/17","23:30",0.0,10.3,98.1,1017.3,328.0,0.6,2.0,340.9,0.00,10.1,16.1,"23:28:22",1
"20/10/17","23:40",0.0,10.6,97.6,1016.8,339.5,1.2,2.7,332.2,0.00,10.3,16.1,"23:37:22",1
"20/10/17","23:50",0.0,10.3,98.1,1017.3,333.7,1.7,4.2,343.2,0.00,10.1,16.3,"23:42:36",1
"20/10/17","24:00",0.0,10.5,97.6,1017.3,334.9,2.3,4.2,334.6,0.00,10.2,16.0,"23:57:26",1
